STARLINK-30433, 57878

Orbit data source: Space-Track

STARLINK-30433, 57878 is a payload satellite owned by SpaceX/Seattle (US) in LEO that was launched on Sat, 16 Sep 2023 UTC via an FALCON 9 launch vehicle from the Air Force Eastern Test Range (AFETR). Payload-class satellites include a variety of spacecraft equipped with specific instruments for various scientific and technological missions. These include communications satellites like Starlink; space stations such as the ISS; scientific satellites like the Hubble; Earth observation satellites from companies like Planet Labs, Umbra, and HawkEye 360; GPS; miniature CubeSats for education and research; and military/defense satellites.

Loading next visibility...
Identifier
57878, 2023-144Q
Orbit
LEO
Country
Flag of USUS
Related business
Manufacturer
SpaceX/Seattle
Mission
Operational Commercial Communications
Bus & Motor
STARLINK V2M, Unknown motor
Mass
730 kg wet, ~700 kg dry
Launch date (UTC)
2023-09-16 (2 years ago)
Launch vehicle
FALCON 9
Launch site
Air Force Eastern Test Range (AFETR)
Object type
Payload
Rocket body
Debris
Shape & HBR
Box + 2 Pan, 17.7 m
Radar Cross Section
33.884 m², Large (>1 m²)

Expand to show TLE details & history
Last TLE update: 19 hours ago

TLE from 19 hours ago
0 STARLINK-30433
1 57878U 23144Q   25348.81732914  .00001043  00000-0  92265-4 0  9992
2 57878  43.0044  28.6501 0001076 275.4675  84.6044 15.02537425124843
Epoch: 2025-12-14T19:36Z
TLE epoch observation values (Epoch: 2025-12-14T19:36:57.237Z)
Latitude
-0.00007°
Longitude
10.68673°
Altitude
558.783 km
Speed
7.584 km/s
True Right ascension
01h 54m 36s
True Declination
0° 00' 00"
Sunlit
Object was in full shadow at epoch
Visualization orbit readout
Latitude
Unknown
Longitude
Unknown
Altitude
Unknown
Speed
Unknown
Apparent Right ascension
Unknown
Apparent Declination
Unknown
Sunlit
N/A
Visualization observer readout
Local Sidereal Time
13:24:50
Azimuth
Unknown
Elevation
Unknown
Doppler factor
Unknown
Orbital elements
Apogee altitude
561.745 km
Perigee altitude
560.252 km
Semi-major axis
6,939.135 km
Eccentricity
0.00011
Inclination
43.0044°
RAAN
28.6501°
Arg. of periapsis
275.4675°
True anomaly
84.61668°
Mean anomaly
84.6044°
Eccentric anomaly
84.61054°
Mean motion
3.75479 °/min
Orbital period
95.88 mins
BSTAR
0.000092265
Loading maneuver chart data...
Computing Atmospheric mass density...
Loading historical data...
Loading historical data...
Loading historical data...
Loading historical data...
Loading historical data...
Loading historical data...
Loading historical data...

Documentation

Showing up to 5 results
|